DECAYED

SCOUT X-1 DEB, 3927 (Decayed)

Orbit data source: Space-Track

SCOUT X-1 DEB, 3927 was space debris in LEO originally from a launch on Thu, 16 Feb 1961 UTC launched from the Wallops Island (WLPIS). Debris objects in space refer to the collection of defunct objects orbiting the Earth. Examples of debris include non-operational satellites, rocket bodies, and fragments generated from explosions, collisions, or faulty payload assembly.

Not visible in the next 10 days
Identifier
3927, 1961-004F
Orbit
Decayed
Country
Flag of USUS
Related business
Manufacturer
Unknown
Mission
Decayed spacecraft
Bus & Motor
Unknown
Mass
Unknown
Launch date (UTC)
1961-02-16 (66 years ago)
Launch vehicle
Unknown
Launch site
Wallops Island (WLPIS)
Object type
Payload
Rocket body
Debris
Shape & HBR
Unknown shape, 0.1 m
Radar Cross Section
Medium (>0.1 m² and <1 m²)

Expand to show TLE details & history
Last TLE update: 6 months ago

TLE from 6 months ago
0 SCOUT X-1 DEB
1 03927U 61004F   26076.61522767  .03359307  11842-1  10780-1 0  9993
2 03927  39.0176 168.8208 0011511  35.2297 324.9271 15.92787666117115
Epoch: 2026-03-17T14:45Z
TLE epoch observation values (Epoch: 2026-03-17T14:45:55.670Z)
Latitude
0.00002°
Longitude
132.14805°
Altitude
287.521 km
Speed
7.741 km/s
True Right ascension
11h 15m 16s
True Declination
0° 00' 00"
Sunlit
Object was in full shadow at epoch
Visualization orbit readout
Latitude
Unknown
Longitude
Unknown
Altitude
Unknown
Speed
Unknown
Apparent Right ascension
Unknown
Apparent Declination
Unknown
Sunlit
N/A
Visualization observer readout
Local Sidereal Time
09:31:57
Azimuth
Unknown
Elevation
Unknown
Doppler factor
Unknown
Orbital elements
Apogee altitude
304.851 km
Perigee altitude
289.483 km
Semi-major axis
6,675.304 km
Eccentricity
0.00115
Inclination
39.0176°
RAAN
168.8208°
Arg. of periapsis
35.2297°
True anomaly
324.85121°
Mean anomaly
324.9271°
Eccentric anomaly
324.88917°
Mean motion
3.97957 °/min
Orbital period
90.46 mins
BSTAR
0.01078
Loading maneuver chart data...
Computing Atmospheric mass density...
Loading historical data...
Loading historical data...
Loading historical data...
Loading historical data...
Loading historical data...
Loading historical data...
Loading historical data...

Documentation

Showing up to 5 results
|